Regional Weather Roundup
Issued by NWS

Home | Current Version | Previous Version | Text Only | Print | Product List | Glossary On
Versions: 1 2 3 4 5 6 7 8 9 10 11 12 13 14 15 16 17 18 19 20 21 22 23 24 25 26 27 28 29 30 31 32 33 34 35 36 37 38 39 40 41 42 43 44 45 46 47 48 49 50
000
ASUS43 KMKX 301121
RWRWI

WISCONSIN REGIONAL WEATHER ROUNDUP
NATIONAL WEATHER SERVICE MILWAUKEE/SULLIVAN WI
600 AM CDT MON MAY 30 2016

NOTE: "FAIR" INDICATES FEW OR NO CLOUDS BELOW 12,000 FEET WITH NO
SIGNIFICANT WEATHER AND/OR OBSTRUCTIONS TO VISIBILITY.

WIZ001-002-006>008-014>016-023>028-301200-
NORTHWEST WISCONSIN

CITY           SKY/WX    TMP DP  RH WIND       PRES   REMARKS
SUPERIOR ARPT  CLEAR     50  50  99 SW7       29.98R
ASHLAND        CLEAR     52  49  89 SW3       29.97R
HAYWARD        CLEAR     46  44  93 CALM      30.01R
SIREN          CLEAR     47  45  93 CALM      30.01R
CUMBERLAND     FOG       50  50 100 CALM      30.01R VSB 1/4
RICE LAKE      CLEAR     52  51  95 CALM      30.03R
CHETEK         FOG       50  50 100 CALM      30.02R VSB 1
LADYSMITH        N/A     49  48  97 CALM      30.03R FOG
EAU CLAIRE     CLEAR     56  55  97 CALM      30.01R
MENOMONIE      CLEAR     53  51  93 CALM      30.01S
NEW RICHMOND   FOG       54  54 100 CALM      30.01S VSB 1/2
OSCEOLA        PTCLDY    51  51 100 CALM      30.03S FOG
$$

WIZ003>005-009-010-017-018-301200-
NORTH CENTRAL WISCONSIN

CITY           SKY/WX    TMP DP  RH WIND       PRES   REMARKS
MANITOWISH WTR NOT AVBL
ARBOR VITAE    CLEAR     52  51  95 CALM      29.99R
WOODRUFF       CLEAR     52  51  95 CALM      29.99R
RHINELANDER    CLEAR     50  49  96 W7        29.99S
EAGLE RIVER      N/A     50  50 100 W5        29.98R
LAND O LAKES   CLEAR     53  53 100 W3        29.98R
PHILLIPS       CLEAR     47  47 100 CALM      29.99S
TOMAHAWK       CLEAR     48  47  97 CALM      30.01R FOG
MEDFORD          N/A     51  51 100 CALM      30.01R FOG
MERRILL        CLEAR     47  47 100 CALM      30.00S FOG
$$

WIZ029-030-035-036-043>047-301200-
CENTRAL WISCONSIN

CITY           SKY/WX    TMP DP  RH WIND       PRES   REMARKS
WAUSAU         CLEAR     58  55  90 NW3       29.98R
MOSINEE        CLEAR     55  55 100 W5        30.01R
MARSHFIELD     CLEAR     57  55  93 W6        30.01R
STEVENS POINT  FOG       50  50 100 CALM      30.01R VSB 3/4
WAUPACA        CLEAR     57  57 100 CALM      29.99S
WAUTOMA        CLEAR    N/A N/A N/A W3        30.01R
WISC RAPIDS    CLEAR     56  54  93 CALM      30.01R
CAMP DOUGLAS   CLEAR     54  54 100 W5        30.01S FOG
$$

WIZ011>013-019>022-031-037>040-048>050-301200-
NORTHEAST WISCONSIN

CITY           SKY/WX    TMP DP  RH WIND       PRES   REMARKS
ANTIGO         MOCLDY    50  50 100 CALM      30.00R FOG
SHAWANO        CLEAR     58  55  92 W5        29.98R
OCONTO         CLEAR    N/A N/A N/A CALM      29.96R
STURGEON BAY   NOT AVBL
GREEN BAY      CLEAR     58  56  93 CALM      29.97R
MANITOWOC      CLEAR     62  58  86 W7        29.98R
APPLETON       PTCLDY    57  57 100 W7        29.97R
CLINTONVILLE   CLEAR     55  54  94 CALM      29.98S
OSHKOSH        CLEAR     61  57  87 W5        29.98S
$$

WIZ032>034-041-042-053>061-301200-
SOUTHWEST WISCONSIN

CITY           SKY/WX    TMP DP  RH WIND       PRES   REMARKS
LA CROSSE      FOG       59  57  93 S6        30.02R VSB 1/2
SPARTA         CLEAR     50  49  99 CALM      30.03R
VIROQUA        CLEAR     60  58  95 CALM      30.03R
BOSCOBEL       FOG       58  57  97 S3        30.03R VSB<1/4
PRAIRIE DU CHI CLEAR     56  54  94 CALM      30.02S
PLATTEVILLE    CLEAR     59  58  95 NW3       30.02S
$$

WIZ056-057-062-063-064-067-068-301200-
SOUTH CENTRAL WISCONSIN

CITY           SKY/WX    TMP DP  RH WIND       PRES   REMARKS
REEDSBURG      CLEAR     55  55 100 CALM      30.02R FOG
BARABOO/DELLS  CLEAR     57  55  91 CALM      30.02R
LONE ROCK      FOG       56  56 100 W3        30.03R VSB 1/4
MINERAL POINT  CLEAR     61  59  94 CALM      30.03S
MADISON        PTCLDY    57  56  96 CALM      30.01R FOG
MIDDLETON      CLEAR     58  58 100 CALM      30.02S
WATERTOWN      CLEAR     55  55 100 CALM      30.01R
MONROE         CLEAR     63  55  77 W8        30.02S
JANESVILLE     CLEAR     59  57  94 CALM      30.01S
$$

WIZ051-052-058>065-066-070>072-301200-
SOUTHEAST WISCONSIN

CITY           SKY/WX    TMP DP  RH WIND       PRES   REMARKS
MILWAUKEE      CLEAR     64  57  78 W5        30.00R
WAUKESHA       CLEAR     55  55 100 CALM      30.02R
MILWAUKEE/TIMM CLEAR     61  55  82 CALM      30.01R
RACINE         CLEAR     63  57  81 W5        30.02R
BURLINGTON     CLEAR     56  55  98 CALM      30.02R
KENOSHA        CLEAR     61  57  87 SW6       30.01R
FOND DU LAC    CLEAR     60  58  92 SW3       30.00R
SHEBOYGAN      CLEAR     57  56  96 W5        29.99R
WEST BEND      CLEAR     55  55 100 CALM      30.01R
JUNEAU         CLEAR     57  56  98 CALM      30.02R
$$

LSZ147-162-301200-
LAKE SUPERIOR

STATION/POSITION TIME  TEMP    WIND        PRES    WAVE
                       AIR SEA DIR/SP/G            HT/PER
                 (UTC) (F)     (DEG/KT/KT) (MB)    (FT/S)
W MID LAKE BUOY  1050   44 38  250/ 14/ 16 1012.7R   1/ 3
DEVILS ISLAND    1100   52     230/ 17/ 18 1014.0R
SAXON HARBOR     1000   55     200/  8/ 10 1013.5
$$

LMZ867-665-643>646-301200-
LAKE MICHIGAN

STATION/POSITION TIME  TEMP    WIND        PRES    WAVE
                       AIR SEA DIR/SP/G            HT/PER
                 (UTC) (F)     (DEG/KT/KT) (MB)    (FT/S)
CHAMBERS ISLAND  1000   59     230/  4/  7 1014.2R
N MID LAKE BUOY  1050   51 48  220/  8/  8 1013.6R   1/ 4
NORTHPORT PIER   1000   59     250/  3/  5 1013.9R
KEWAUNEE LAKESHO 1000   60     300/  5/  6 1013.9R
SHEBOYGAN LAKESH 1100   63     260/  9/ 10 1015.4R
PORT WASHINGTON  1000   64     290/  5/  8 1015.6
S MID LAKE BUOY  1050   56 51  240/  6/  8 1015.7R   0
KENOSHA   LAKESH 1100   65     250/  8/ 10 1015.9R
$$

TC  - TEMPERATURE IN CELSIUS
VSB - VISIBILITY IN STATUTE MILES
WCI - WIND CHILL INDEX
HX  - HEAT INDEX





USA.gov is the U.S. government's official web portal to all federal, state and local government web resources and services.